Regional Weather Roundup
Issued by NWS

Home | Current Version | Previous Version | Graphics & Text | Print | Product List | Glossary On
Versions: 1 2 3 4 5 6 7 8 9 10 11 12 13 14 15 16 17 18 19 20 21 22 23 24 25 26 27 28 29 30 31 32 33 34 35 36 37 38 39 40 41 42 43 44 45 46 47 48 49 50
000
ASUS44 KMEG 251700
RWRTN
TENNESSEE HOURLY STATE WEATHER ROUNDUP
NATIONAL WEATHER SERVICE MEMPHIS TN
1200 PM CDT WED MAY 25 2016

TNZ002-004-019-021-049-052-054-088>092-251800-
WEST TENNESSEE

CITY           SKY/WX    TMP DP  RH WIND       PRES   REMARKS
MEMPHIS INTL   CLOUDY    80  71  74 SW12G18   30.11S
NWS MEMPHIS      N/A     80 N/A N/A MISG        N/A
JACKSON        CLOUDY    80  71  74 SW12G22   30.12F
DYERSBURG      CLOUDY    75  70  83 W22G29    30.11R
UNION CITY     MOSUNNY   79  72  78 SW9       30.08S
PARIS          PTSUNNY   79  70  73 S10       30.11F
LEXINGTON      MOSUNNY   82  70  65 SW10      30.12F
$$

TNZ008-025-027-028-033-062-065-066-251800-
NORTH MIDDLE TENNESSEE

CITY           SKY/WX    TMP DP  RH WIND       PRES   REMARKS
NASHVILLE      CLOUDY    80  62  54 S9        30.16F
CLARKSVILLE    PTSUNNY   79  66  64 S7        30.12F
COOKEVILLE     MOSUNNY   75  63  64 SW6       30.22R
CROSSVILLE     CLOUDY    77  58  51 SW7       30.26F
$$

TNZ061-075-076-078-094-096-097-251800-
SOUTH MIDDLE TENNESSEE

CITY           SKY/WX    TMP DP  RH WIND       PRES   REMARKS
TULLAHOMA      SUNNY     79  64  61 S5        30.22F
WINCHESTER     SUNNY     82  61  47 SW6       30.22S
MCMINNVILLE    MOSUNNY   79  63  57 SW5       30.22F
COLUMBIA       SUNNY     84  72  65 S14       30.15S
SHELBYVILLE    PTSUNNY   81  64  57 SE5       30.20F
$$

TNZ017-018-042-046-047-251800-
NORTHEAST TENNESSEE

CITY           SKY/WX    TMP DP  RH WIND       PRES   REMARKS
TRI CITIES     MOSUNNY   78  56  46 SW5       30.24F
$$

TNZ012-013-036-069-073-074-251800-
CENTRAL EAST TENNESSEE

CITY           SKY/WX    TMP DP  RH WIND       PRES   REMARKS
KNOXVILLE      CLOUDY    80  59  48 SW10      30.22F
OAK RIDGE      CLOUDY    76  56  49 S7        30.24F
GATLINBURG       N/A     81  57  44 W7        30.21F
$$

TNZ083-085-099-251800-
SOUTHEAST TENNESSEE

CITY           SKY/WX    TMP DP  RH WIND       PRES   REMARKS
CHATTANOOGA    CLOUDY    80  58  46 VRB3      30.23S
$$

SKY/WX REPORTED AS FAIR MEANS FEW OR NO CLOUDS BELOW
12 THOUSAND FEET.





USA.gov is the U.S. government's official web portal to all federal, state and local government web resources and services.